TAM9150 SBGR-SBCR

Flight info

Callsign TAM9150
Flight time 1h 52m
Altitude 34000
Route EGEVA UM415 FIGOS UZ63 GRD UZ42 ATERU
Aircraft A319/M-SDE3FGHIRWY/LB1

Departure

Time 2026-05-04 14:25
Airport São Paulo/Guarulhos–Governor André Franco Montoro International Airport (SBGR)

Arrival

Time 2026-05-04 16:17
Airport Corumbá International Airport (SBCR)
Time Latitude Longitude Altitude Speed Heading
2026-05-04 13:56 -23.42816 -46.48347 2462 ft 0 kts 84°
2026-05-04 14:18 -23.42818 -46.48358 2464 ft 4 kts 83°
2026-05-04 14:18 -23.42818 -46.48415 2461 ft 4 kts 121°
2026-05-04 14:19 -23.42791 -46.48431 2465 ft 0 kts 177°
2026-05-04 14:21 -23.42805 -46.48434 2464 ft 3 kts 193°
2026-05-04 14:21 -23.42840 -46.48447 2463 ft 8 kts 199°
2026-05-04 14:21 -23.42911 -46.48452 2461 ft 13 kts 178°
2026-05-04 14:21 -23.43005 -46.48450 2461 ft 14 kts 174°
2026-05-04 14:22 -23.43107 -46.48435 2465 ft 15 kts 164°
2026-05-04 14:22 -23.43210 -46.48395 2466 ft 16 kts 164°
2026-05-04 14:22 -23.43322 -46.48360 2462 ft 17 kts 161°
2026-05-04 14:22 -23.43370 -46.48343 2463 ft 0 kts 150°
2026-05-04 14:23 -23.43386 -46.48328 2461 ft 3 kts 135°
2026-05-04 14:23 -23.43402 -46.48301 2464 ft 5 kts 115°
2026-05-04 14:23 -23.43406 -46.48264 2460 ft 0 kts 84°
2026-05-04 14:24 -23.43405 -46.48255 2460 ft 2 kts 80°
2026-05-04 14:24 -23.43368 -46.48113 2467 ft 52 kts 73°
2026-05-04 14:24 -23.43194 -46.47479 2462 ft 120 kts 73°
2026-05-04 14:24 -23.42906 -46.46401 2523 ft 169 kts 74°
2026-05-04 14:25 -23.42579 -46.45131 3117 ft 180 kts 73°
2026-05-04 14:25 -23.41737 -46.42357 4091 ft 208 kts 71°
2026-05-04 14:25 -23.41270 -46.40773 4318 ft 233 kts 70°
2026-05-04 14:26 -23.40754 -46.39004 4757 ft 258 kts 70°
2026-05-04 14:26 -23.40228 -46.37087 5352 ft 275 kts 76°
2026-05-04 14:26 -23.40338 -46.34980 6127 ft 287 kts 106°
2026-05-04 14:26 -23.41003 -46.32910 6999 ft 292 kts 109°
2026-05-04 14:27 -23.41826 -46.30877 7841 ft 296 kts 124°
2026-05-04 14:27 -23.43261 -46.29271 8667 ft 298 kts 148°
2026-05-04 14:27 -23.45156 -46.28412 9545 ft 296 kts 172°
2026-05-04 14:27 -23.47190 -46.28438 10381 ft 293 kts 195°
2026-05-04 14:28 -23.49042 -46.29319 11171 ft 290 kts 217°
2026-05-04 14:28 -23.50484 -46.30941 11449 ft 310 kts 240°
2026-05-04 14:28 -23.51359 -46.33170 11646 ft 331 kts 250°
2026-05-04 14:28 -23.52180 -46.35564 12139 ft 341 kts 250°
2026-05-04 14:29 -23.53876 -46.40449 13496 ft 348 kts 249°
2026-05-04 14:29 -23.55626 -46.45377 14802 ft 352 kts 249°
2026-05-04 14:30 -23.56516 -46.47872 15400 ft 355 kts 249°
2026-05-04 14:30 -23.57414 -46.50393 15981 ft 357 kts 249°
2026-05-04 14:30 -23.58912 -46.54620 17013 ft 362 kts 249°
2026-05-04 14:31 -23.59818 -46.57184 17597 ft 364 kts 249°
2026-05-04 14:31 -23.61656 -46.62385 18709 ft 371 kts 249°
2026-05-04 14:32 -23.63907 -46.67464 19722 ft 375 kts 238°
2026-05-04 14:32 -23.65315 -46.69866 20257 ft 377 kts 238°
2026-05-04 14:32 -23.66730 -46.72293 20798 ft 379 kts 238°
2026-05-04 14:32 -23.67997 -46.74818 21290 ft 381 kts 248°
2026-05-04 14:33 -23.68668 -46.77618 21770 ft 385 kts 262°
2026-05-04 14:33 -23.68664 -46.80555 22232 ft 391 kts 275°
2026-05-04 14:33 -23.67960 -46.83441 22687 ft 399 kts 289°
2026-05-04 14:33 -23.66579 -46.86091 23124 ft 407 kts 301°
2026-05-04 14:34 -23.64961 -46.88629 23496 ft 409 kts 301°
2026-05-04 14:34 -23.63330 -46.91189 23892 ft 412 kts 300°
2026-05-04 14:34 -23.61693 -46.93766 24248 ft 414 kts 300°
2026-05-04 14:34 -23.60046 -46.96356 24624 ft 416 kts 300°
2026-05-04 14:35 -23.58398 -46.98947 24995 ft 417 kts 300°
2026-05-04 14:35 -23.56738 -47.01557 25369 ft 419 kts 300°
2026-05-04 14:35 -23.55075 -47.04176 25744 ft 420 kts 300°
2026-05-04 14:35 -23.53410 -47.06798 26117 ft 422 kts 300°
2026-05-04 14:36 -23.51738 -47.09433 26487 ft 423 kts 300°
2026-05-04 14:36 -23.50062 -47.12075 26869 ft 425 kts 300°
2026-05-04 14:36 -23.48379 -47.14726 27230 ft 426 kts 300°
2026-05-04 14:36 -23.46689 -47.17385 27587 ft 427 kts 300°
2026-05-04 14:37 -23.44992 -47.20050 27940 ft 429 kts 300°
2026-05-04 14:37 -23.43289 -47.22720 28278 ft 431 kts 300°
2026-05-04 14:37 -23.41575 -47.25402 28602 ft 432 kts 300°
2026-05-04 14:37 -23.39878 -47.28062 28939 ft 434 kts 300°
2026-05-04 14:38 -23.38157 -47.30760 29271 ft 435 kts 300°
2026-05-04 14:38 -23.36428 -47.33472 29600 ft 437 kts 300°
2026-05-04 14:38 -23.34687 -47.36202 29923 ft 438 kts 300°
2026-05-04 14:38 -23.32944 -47.38928 30220 ft 440 kts 299°
2026-05-04 14:39 -23.31192 -47.41663 30482 ft 441 kts 299°
2026-05-04 14:39 -23.29443 -47.44394 30824 ft 440 kts 299°
2026-05-04 14:39 -23.27693 -47.47123 31213 ft 438 kts 299°
2026-05-04 14:40 -23.24227 -47.52540 31981 ft 435 kts 299°
2026-05-04 14:40 -23.22503 -47.55234 32369 ft 433 kts 299°
2026-05-04 14:40 -23.20781 -47.57920 32748 ft 432 kts 299°
2026-05-04 14:40 -23.19193 -47.60661 33122 ft 425 kts 291°
2026-05-04 14:41 -23.18098 -47.63606 33483 ft 417 kts 282°
2026-05-04 14:41 -23.17534 -47.66667 33881 ft 410 kts 272°
2026-05-04 14:41 -23.17283 -47.72827 34191 ft 406 kts 270°
2026-05-04 14:42 -23.17057 -47.78930 34192 ft 403 kts 270°
2026-05-04 14:42 -23.16828 -47.85017 34195 ft 403 kts 270°
2026-05-04 14:43 -23.16595 -47.91109 34192 ft 403 kts 270°
2026-05-04 14:43 -23.16359 -47.97200 34196 ft 403 kts 270°
2026-05-04 14:44 -23.16126 -48.03292 34191 ft 403 kts 269°
2026-05-04 14:44 -23.15888 -48.09353 34192 ft 404 kts 270°
2026-05-04 14:45 -23.15644 -48.15447 34187 ft 404 kts 270°
2026-05-04 14:45 -23.15395 -48.21542 34189 ft 404 kts 270°
2026-05-04 14:46 -23.15150 -48.27632 34179 ft 403 kts 269°
2026-05-04 14:46 -23.14905 -48.33716 34190 ft 403 kts 269°
2026-05-04 14:47 -23.14655 -48.39802 34191 ft 403 kts 269°
2026-05-04 14:47 -23.14407 -48.45878 34195 ft 402 kts 269°
2026-05-04 14:48 -23.14160 -48.51944 34185 ft 402 kts 269°
2026-05-04 14:48 -23.13401 -48.57967 34178 ft 409 kts 283°
2026-05-04 14:49 -23.11556 -48.63783 34180 ft 410 kts 284°
2026-05-04 14:49 -23.09695 -48.69633 34171 ft 410 kts 284°
2026-05-04 14:50 -23.07841 -48.75485 34163 ft 410 kts 284°
2026-05-04 14:50 -23.05989 -48.81340 34152 ft 410 kts 284°
2026-05-04 14:51 -23.04130 -48.87188 34154 ft 410 kts 284°
2026-05-04 14:51 -23.02266 -48.93035 34159 ft 410 kts 284°
2026-05-04 14:52 -23.00395 -48.98885 34157 ft 410 kts 284°
2026-05-04 14:52 -22.98521 -49.04730 34166 ft 410 kts 284°
2026-05-04 14:53 -22.96645 -49.10576 34162 ft 410 kts 284°
2026-05-04 14:53 -22.94776 -49.16427 34148 ft 410 kts 284°
2026-05-04 14:54 -22.92744 -49.22226 34151 ft 412 kts 286°
2026-05-04 14:54 -22.90566 -49.27982 34155 ft 413 kts 287°
2026-05-04 14:55 -22.88490 -49.33769 34143 ft 410 kts 283°
2026-05-04 14:55 -22.86711 -49.39632 34148 ft 409 kts 282°
2026-05-04 14:56 -22.84986 -49.45508 34140 ft 409 kts 282°
2026-05-04 14:56 -22.83154 -49.51362 34141 ft 411 kts 284°
2026-05-04 14:57 -22.81172 -49.57179 34128 ft 411 kts 284°
2026-05-04 14:57 -22.79174 -49.62993 34125 ft 412 kts 284°
2026-05-04 14:58 -22.77218 -49.68778 34128 ft 412 kts 284°
2026-05-04 14:58 -22.75262 -49.74609 34135 ft 412 kts 284°
2026-05-04 14:59 -22.73299 -49.80435 34129 ft 412 kts 284°
2026-05-04 15:00 -22.70344 -49.89178 34136 ft 412 kts 284°
2026-05-04 15:00 -22.68371 -49.95011 34110 ft 412 kts 284°
2026-05-04 15:01 -22.65412 -50.03751 34125 ft 412 kts 284°
2026-05-04 15:01 -22.63437 -50.09575 34123 ft 413 kts 284°
2026-05-04 15:02 -22.61465 -50.15412 34129 ft 413 kts 284°
2026-05-04 15:02 -22.59493 -50.21245 34131 ft 413 kts 284°
2026-05-04 15:03 -22.57515 -50.27077 34119 ft 413 kts 284°
2026-05-04 15:03 -22.55509 -50.32901 34123 ft 413 kts 284°
2026-05-04 15:04 -22.53493 -50.38726 34123 ft 413 kts 284°
2026-05-04 15:04 -22.51484 -50.44553 34121 ft 413 kts 284°
2026-05-04 15:05 -22.49474 -50.50374 34120 ft 413 kts 284°
2026-05-04 15:05 -22.47459 -50.56196 34118 ft 413 kts 284°
2026-05-04 15:06 -22.45442 -50.62016 34122 ft 414 kts 284°
2026-05-04 15:07 -22.42419 -50.70749 34098 ft 414 kts 284°
2026-05-04 15:07 -22.40401 -50.76565 34106 ft 413 kts 284°
2026-05-04 15:08 -22.38372 -50.82386 34108 ft 414 kts 284°
2026-05-04 15:08 -22.36340 -50.88201 34109 ft 414 kts 284°
2026-05-04 15:09 -22.34308 -50.94021 34111 ft 414 kts 284°
2026-05-04 15:09 -22.32279 -50.99839 34115 ft 414 kts 284°
2026-05-04 15:10 -22.29228 -51.08566 34118 ft 414 kts 284°
2026-05-04 15:11 -22.26168 -51.17293 34123 ft 414 kts 285°
2026-05-04 15:11 -22.24114 -51.23107 34134 ft 414 kts 285°
2026-05-04 15:12 -22.22063 -51.28919 34148 ft 414 kts 285°
2026-05-04 15:12 -22.20025 -51.34699 34159 ft 415 kts 285°
2026-05-04 15:13 -22.17984 -51.40512 34152 ft 414 kts 285°
2026-05-04 15:13 -22.15953 -51.46329 34152 ft 414 kts 284°
2026-05-04 15:14 -22.13965 -51.52157 34132 ft 414 kts 284°
2026-05-04 15:14 -22.11979 -51.57988 34096 ft 415 kts 285°
2026-05-04 15:15 -22.09976 -51.63825 34096 ft 415 kts 285°
2026-05-04 15:15 -22.08300 -51.68680 34102 ft 415 kts 285°
2026-05-04 15:16 -22.05273 -51.77435 34108 ft 415 kts 285°
2026-05-04 15:17 -22.02264 -51.86181 34100 ft 415 kts 285°
2026-05-04 15:17 -21.99243 -51.94929 34086 ft 415 kts 285°
2026-05-04 15:18 -21.97221 -52.00764 34084 ft 415 kts 285°
2026-05-04 15:19 -21.94200 -52.09472 34098 ft 416 kts 285°
2026-05-04 15:19 -21.91157 -52.18218 34093 ft 416 kts 285°
2026-05-04 15:20 -21.89124 -52.24052 34097 ft 416 kts 285°
2026-05-04 15:20 -21.87098 -52.29887 34094 ft 416 kts 285°
2026-05-04 15:21 -21.85053 -52.35724 34079 ft 416 kts 286°
2026-05-04 15:22 -21.81980 -52.44473 34086 ft 416 kts 286°
2026-05-04 15:22 -21.78912 -52.53222 34092 ft 417 kts 286°
2026-05-04 15:23 -21.76860 -52.59055 34099 ft 417 kts 286°
2026-05-04 15:23 -21.74806 -52.64882 34099 ft 417 kts 286°
2026-05-04 15:24 -21.70684 -52.76551 34095 ft 417 kts 286°
2026-05-04 15:25 -21.68617 -52.82393 34085 ft 418 kts 287°
2026-05-04 15:26 -21.65520 -52.91163 34089 ft 419 kts 287°
2026-05-04 15:26 -21.62413 -52.99933 34088 ft 419 kts 287°
2026-05-04 15:27 -21.59292 -53.08711 34081 ft 419 kts 287°
2026-05-04 15:28 -21.56171 -53.17492 34083 ft 420 kts 287°
2026-05-04 15:29 -21.53032 -53.26283 34070 ft 420 kts 287°
2026-05-04 15:30 -21.45574 -53.46730 34071 ft 425 kts 294°
2026-05-04 15:31 -21.41953 -53.51832 34074 ft 433 kts 306°
2026-05-04 15:31 -21.39961 -53.54261 34074 ft 434 kts 306°
2026-05-04 15:32 -21.30002 -53.66434 34060 ft 435 kts 306°
2026-05-04 15:34 -21.20018 -53.78616 34065 ft 436 kts 306°
2026-05-04 15:34 -21.14011 -53.85939 34061 ft 436 kts 306°
2026-05-04 15:35 -21.08002 -53.93258 34063 ft 436 kts 306°
2026-05-04 15:36 -21.01970 -54.00575 34066 ft 437 kts 306°
2026-05-04 15:36 -20.97944 -54.05445 34069 ft 437 kts 306°
2026-05-04 15:37 -20.93928 -54.10320 34070 ft 436 kts 306°
2026-05-04 15:37 -20.89927 -54.15193 34069 ft 436 kts 305°
2026-05-04 15:38 -20.86049 -54.20170 34066 ft 435 kts 303°
2026-05-04 15:38 -20.82271 -54.25155 34063 ft 435 kts 303°
2026-05-04 15:39 -20.78443 -54.30159 34065 ft 435 kts 304°
2026-05-04 15:40 -20.72647 -54.37621 34052 ft 435 kts 304°
2026-05-04 15:40 -20.68783 -54.42598 34061 ft 435 kts 304°
2026-05-04 15:41 -20.64922 -54.47571 34067 ft 435 kts 304°
2026-05-04 15:41 -20.61054 -54.52544 34085 ft 435 kts 304°
2026-05-04 15:42 -20.57187 -54.57517 34091 ft 435 kts 304°
2026-05-04 15:42 -20.53325 -54.62486 34082 ft 435 kts 303°
2026-05-04 15:43 -20.49462 -54.67449 34091 ft 435 kts 303°
2026-05-04 15:43 -20.46316 -54.72842 34092 ft 426 kts 293°
2026-05-04 15:44 -20.43498 -54.78399 34092 ft 426 kts 293°
2026-05-04 15:44 -20.40661 -54.83951 34079 ft 426 kts 293°
2026-05-04 15:45 -20.37813 -54.89497 34027 ft 426 kts 293°
2026-05-04 15:45 -20.34964 -54.95035 34011 ft 426 kts 293°
2026-05-04 15:46 -20.32121 -55.00573 34020 ft 426 kts 293°
2026-05-04 15:46 -20.29283 -55.06107 34022 ft 426 kts 293°
2026-05-04 15:47 -20.26446 -55.11636 34023 ft 425 kts 293°
2026-05-04 15:47 -20.23605 -55.17160 34018 ft 425 kts 293°
2026-05-04 15:48 -20.20759 -55.22685 34020 ft 425 kts 293°
2026-05-04 15:48 -20.16498 -55.30963 34001 ft 425 kts 292°
2026-05-04 15:49 -20.13767 -55.36533 34021 ft 424 kts 291°
2026-05-04 15:49 -20.11145 -55.42097 34008 ft 423 kts 291°
2026-05-04 15:50 -20.08497 -55.47691 34014 ft 424 kts 291°
2026-05-04 15:50 -20.05815 -55.53274 34010 ft 424 kts 291°
2026-05-04 15:51 -20.03123 -55.58846 34001 ft 423 kts 291°
2026-05-04 15:51 -20.00439 -55.64413 34005 ft 423 kts 291°
2026-05-04 15:52 -19.97754 -55.69987 34012 ft 423 kts 291°
2026-05-04 15:52 -19.95074 -55.75556 33993 ft 423 kts 291°
2026-05-04 15:53 -19.92395 -55.81126 33994 ft 423 kts 291°
2026-05-04 15:53 -19.89714 -55.86694 34000 ft 423 kts 291°
2026-05-04 15:54 -19.87030 -55.92246 33960 ft 422 kts 291°
2026-05-04 15:54 -19.85686 -55.95018 33350 ft 422 kts 291°
2026-05-04 15:54 -19.84344 -55.97791 32581 ft 424 kts 292°
2026-05-04 15:55 -19.82987 -56.00602 31759 ft 428 kts 292°
2026-05-04 15:55 -19.81641 -56.03389 30922 ft 432 kts 293°
2026-05-04 15:55 -19.80263 -56.06238 30054 ft 436 kts 294°
2026-05-04 15:55 -19.78869 -56.09115 29112 ft 438 kts 294°
2026-05-04 15:56 -19.77475 -56.11982 28388 ft 436 kts 295°
2026-05-04 15:56 -19.76086 -56.14837 27695 ft 434 kts 295°
2026-05-04 15:56 -19.74706 -56.17667 27014 ft 431 kts 295°
2026-05-04 15:56 -19.73330 -56.20491 26356 ft 428 kts 295°
2026-05-04 15:57 -19.71968 -56.23293 25716 ft 426 kts 295°
2026-05-04 15:57 -19.70615 -56.26085 25301 ft 425 kts 295°
2026-05-04 15:57 -19.69267 -56.28876 25072 ft 426 kts 295°
2026-05-04 15:57 -19.67915 -56.31673 24846 ft 426 kts 295°
2026-05-04 15:58 -19.66556 -56.34471 24623 ft 426 kts 295°
2026-05-04 15:58 -19.65198 -56.37260 24398 ft 425 kts 295°
2026-05-04 15:58 -19.63839 -56.40046 24162 ft 423 kts 295°
2026-05-04 15:58 -19.62945 -56.41877 23827 ft 420 kts 295°
2026-05-04 15:59 -19.61604 -56.44625 23214 ft 418 kts 295°
2026-05-04 15:59 -19.60271 -56.47354 22578 ft 415 kts 295°
2026-05-04 15:59 -19.58948 -56.50059 21980 ft 411 kts 296°
2026-05-04 15:59 -19.57636 -56.52741 21387 ft 409 kts 296°
2026-05-04 16:00 -19.56334 -56.55405 20818 ft 406 kts 296°
2026-05-04 16:00 -19.55036 -56.58060 20288 ft 403 kts 296°
2026-05-04 16:00 -19.53754 -56.60687 19756 ft 400 kts 296°
2026-05-04 16:00 -19.52480 -56.63300 19236 ft 397 kts 296°
2026-05-04 16:01 -19.51217 -56.65888 18725 ft 394 kts 296°
2026-05-04 16:01 -19.49960 -56.68460 18190 ft 391 kts 297°
2026-05-04 16:01 -19.48731 -56.70971 17623 ft 387 kts 296°
2026-05-04 16:01 -19.47497 -56.73493 17066 ft 383 kts 296°
2026-05-04 16:02 -19.46279 -56.75981 16713 ft 380 kts 296°
2026-05-04 16:02 -19.45054 -56.78478 16460 ft 381 kts 297°
2026-05-04 16:02 -19.42612 -56.83444 15729 ft 376 kts 297°
2026-05-04 16:03 -19.41407 -56.85889 15188 ft 372 kts 297°
2026-05-04 16:03 -19.40213 -56.88317 14607 ft 370 kts 297°
2026-05-04 16:03 -19.39031 -56.90729 14069 ft 367 kts 297°
2026-05-04 16:03 -19.37859 -56.93116 13775 ft 363 kts 297°
2026-05-04 16:04 -19.36711 -56.95449 13512 ft 351 kts 297°
2026-05-04 16:04 -19.34357 -56.99787 13014 ft 330 kts 306°
2026-05-04 16:04 -19.33025 -57.01733 12761 ft 321 kts 306°
2026-05-04 16:05 -19.31734 -57.03625 12512 ft 313 kts 306°
2026-05-04 16:05 -19.30472 -57.05475 12266 ft 306 kts 306°
2026-05-04 16:05 -19.28019 -57.09064 11791 ft 296 kts 306°
2026-05-04 16:06 -19.26831 -57.10800 11549 ft 293 kts 306°
2026-05-04 16:06 -19.23653 -57.15440 10887 ft 289 kts 306°
2026-05-04 16:07 -19.22104 -57.17714 10623 ft 284 kts 307°
2026-05-04 16:07 -19.18648 -57.22777 10302 ft 282 kts 307°
2026-05-04 16:08 -19.17497 -57.24458 10182 ft 282 kts 307°
2026-05-04 16:08 -19.14037 -57.29497 9364 ft 289 kts 307°
2026-05-04 16:09 -19.11681 -57.32943 8548 ft 289 kts 307°
2026-05-04 16:09 -19.09383 -57.36298 7742 ft 274 kts 308°
2026-05-04 16:10 -19.07211 -57.39472 6992 ft 258 kts 309°
2026-05-04 16:11 -19.04008 -57.43742 5900 ft 233 kts 327°
2026-05-04 16:11 -19.02721 -57.44709 5569 ft 221 kts 327°
2026-05-04 16:12 -18.99426 -57.47198 4720 ft 175 kts 328°
2026-05-04 16:12 -18.96888 -57.49468 3976 ft 155 kts 298°
2026-05-04 16:13 -18.97045 -57.51723 3523 ft 160 kts 258°
2026-05-04 16:13 -18.97644 -57.53966 3049 ft 158 kts 258°
2026-05-04 16:14 -18.98246 -57.56210 2574 ft 158 kts 257°
2026-05-04 16:14 -18.98836 -57.58407 2157 ft 155 kts 256°
2026-05-04 16:15 -18.99667 -57.61519 1530 ft 141 kts 255°
2026-05-04 16:16 -19.00195 -57.63504 1129 ft 140 kts 255°
2026-05-04 16:16 -19.00959 -57.66398 503 ft 132 kts 256°
2026-05-04 16:17 -19.01215 -57.67409 483 ft 22 kts 265°
2026-05-04 16:18 -19.01181 -57.67233 482 ft 17 kts 75°
2026-05-04 16:18 -19.01146 -57.67103 482 ft 19 kts 75°
2026-05-04 16:19 -19.01019 -57.66633 487 ft 26 kts 74°
2026-05-04 16:19 -19.01052 -57.66353 486 ft 21 kts 155°
2026-05-04 16:20 -19.01309 -57.66355 482 ft 10 kts 265°
2026-05-04 16:20 -19.01344 -57.66388 484 ft 2 kts 151°
2026-05-04 16:21 -19.01361 -57.66372 486 ft 0 kts 136°